TimeAKST,TemperatureF,Dew PointF,Humidity,Sea Level PressureIn,VisibilityMPH,Wind Direction,Wind SpeedMPH,Gust SpeedMPH,PrecipitationIn,Events,Conditions,WindDirDegrees,DateUTC
12:16 AM,39.2,33.8,81,30.02,10.0,ESE,11.5,-,N/A,,Overcast,110,2012-12-30 09:16:00
12:36 AM,39.2,33.8,81,30.02,10.0,ESE,10.4,-,N/A,,Overcast,110,2012-12-30 09:36:00
12:56 AM,39.2,33.8,81,30.02,10.0,ESE,10.4,18.4,N/A,,Overcast,120,2012-12-30 09:56:00
1:16 AM,39.2,33.8,81,30.02,10.0,ESE,10.4,18.4,N/A,,Overcast,120,2012-12-30 10:16:00
1:36 AM,39.2,33.8,81,30.02,10.0,ESE,12.7,16.1,N/A,,Overcast,120,2012-12-30 10:36:00
1:56 AM,39.2,33.8,81,30.02,10.0,ESE,12.7,17.3,N/A,,Overcast,120,2012-12-30 10:56:00
2:16 AM,39.2,33.8,81,30.01,10.0,ESE,12.7,21.9,N/A,,Overcast,120,2012-12-30 11:16:00
2:36 AM,39.2,33.8,81,30.01,10.0,ESE,10.4,21.9,N/A,,Overcast,120,2012-12-30 11:36:00
3:16 AM,39.2,33.8,81,29.98,10.0,ESE,8.1,-,N/A,,Overcast,120,2012-12-30 12:16:00
3:36 AM,39.2,33.8,81,29.97,10.0,ESE,9.2,-,N/A,,Overcast,110,2012-12-30 12:36:00
3:56 AM,39.2,33.8,81,29.97,10.0,SE,3.5,-,N/A,,Overcast,140,2012-12-30 12:56:00
4:16 AM,39.2,33.8,81,29.96,10.0,ESE,4.6,-,N/A,,Overcast,120,2012-12-30 13:16:00
4:36 AM,39.2,33.8,81,29.96,10.0,SE,5.8,-,N/A,,Overcast,130,2012-12-30 13:36:00
4:56 AM,39.2,33.8,81,29.95,10.0,ESE,8.1,-,N/A,,Overcast,120,2012-12-30 13:56:00
5:16 AM,39.2,33.8,81,29.95,10.0,ESE,11.5,17.3,0.01,,Overcast,120,2012-12-30 14:16:00
5:36 AM,39.2,33.8,81,29.95,10.0,SE,10.4,17.3,0.02,,Overcast,130,2012-12-30 14:36:00
5:56 AM,39.2,33.8,81,29.95,10.0,SE,13.8,23.0,0.03,,Overcast,130,2012-12-30 14:56:00
6:16 AM,37.4,33.8,87,29.94,10.0,ESE,11.5,17.3,0.01,,Overcast,120,2012-12-30 15:16:00
6:36 AM,37.4,33.8,87,29.94,10.0,SE,13.8,23.0,0.02,,Overcast,130,2012-12-30 15:36:00
6:56 AM,37.4,33.8,87,29.93,10.0,SE,16.1,20.7,0.02,,Overcast,130,2012-12-30 15:56:00
7:16 AM,37.4,33.8,87,29.93,10.0,ESE,15.0,21.9,0.01,,Overcast,120,2012-12-30 16:16:00
7:36 AM,37.4,33.8,87,29.93,10.0,ESE,13.8,20.7,0.02,,Overcast,120,2012-12-30 16:36:00
7:56 AM,37.4,33.8,87,29.93,10.0,ESE,12.7,18.4,0.03,,Overcast,120,2012-12-30 16:56:00
8:16 AM,37.4,33.8,87,29.93,10.0,ESE,12.7,21.9,0.01,,Overcast,110,2012-12-30 17:16:00
8:36 AM,37.4,33.8,87,29.93,10.0,ESE,10.4,17.3,0.03,,Overcast,120,2012-12-30 17:36:00
8:56 AM,37.4,33.8,87,29.94,10.0,SE,9.2,20.7,0.04,,Overcast,130,2012-12-30 17:56:00
9:16 AM,37.4,33.8,87,29.94,10.0,ESE,12.7,21.9,0.01,,Overcast,120,2012-12-30 18:16:00
9:36 AM,37.4,33.8,87,29.94,10.0,SE,12.7,18.4,0.02,,Overcast,130,2012-12-30 18:36:00
9:56 AM,37.4,33.8,87,29.94,10.0,ESE,12.7,21.9,0.04,,Overcast,120,2012-12-30 18:56:00
10:16 AM,37.4,33.8,87,29.94,10.0,ESE,15.0,24.2,0.02,,Overcast,120,2012-12-30 19:16:00
10:36 AM,37.4,33.8,87,29.93,10.0,SE,13.8,19.6,0.04,,Overcast,130,2012-12-30 19:36:00
10:56 AM,37.4,33.8,87,29.93,10.0,ESE,12.7,20.7,0.05,,Overcast,120,2012-12-30 19:56:00
11:16 AM,37.4,33.8,87,29.92,9.0,ESE,13.8,18.4,N/A,,Overcast,120,2012-12-30 20:16:00
11:36 AM,39.2,33.8,81,29.92,10.0,ESE,15.0,21.9,N/A,,Mostly Cloudy,120,2012-12-30 20:36:00
11:56 AM,39.2,33.8,81,29.91,10.0,ESE,11.5,19.6,0.01,,Overcast,120,2012-12-30 20:56:00
12:16 PM,39.2,35.6,87,29.91,10.0,ESE,12.7,20.7,N/A,,Overcast,120,2012-12-30 21:16:00
12:36 PM,39.2,35.6,87,29.90,10.0,ESE,11.5,-,0.01,,Overcast,120,2012-12-30 21:36:00
12:56 PM,39.2,35.6,87,29.90,10.0,ESE,12.7,19.6,0.02,,Overcast,120,2012-12-30 21:56:00
1:16 PM,39.2,35.6,87,29.90,10.0,ESE,10.4,-,N/A,,Overcast,120,2012-12-30 22:16:00
1:36 PM,39.2,35.6,87,29.89,10.0,ESE,9.2,18.4,0.01,,Overcast,120,2012-12-30 22:36:00
1:56 PM,39.2,35.6,87,29.89,10.0,ESE,9.2,-,0.02,,Overcast,120,2012-12-30 22:56:00
2:16 PM,39.2,35.6,87,29.89,9.0,ESE,11.5,17.3,0.01,,Overcast,120,2012-12-30 23:16:00
2:36 PM,39.2,35.6,87,29.88,10.0,ESE,10.4,-,0.03,,Overcast,120,2012-12-30 23:36:00
2:56 PM,39.2,35.6,87,29.88,10.0,ESE,10.4,16.1,0.04,,Overcast,120,2012-12-30 23:56:00
3:16 PM,39.2,35.6,87,29.86,9.0,ESE,10.4,18.4,0.02,,Overcast,110,2012-12-31 00:16:00
3:36 PM,39.2,35.6,87,29.86,9.0,ESE,11.5,19.6,0.03,,Overcast,110,2012-12-31 00:36:00
3:56 PM,39.2,35.6,87,29.85,10.0,ESE,10.4,16.1,0.04,,Overcast,110,2012-12-31 00:56:00
4:16 PM,39.2,35.6,87,29.85,9.0,ESE,9.2,16.1,0.03,,Overcast,110,2012-12-31 01:16:00
4:36 PM,39.2,35.6,87,29.84,10.0,ESE,9.2,-,0.06,,Overcast,110,2012-12-31 01:36:00
4:56 PM,39.2,35.6,87,29.84,10.0,ESE,4.6,-,0.09,,Overcast,110,2012-12-31 01:56:00
5:16 PM,39.2,35.6,87,29.83,10.0,ESE,6.9,-,0.03,,Overcast,110,2012-12-31 02:16:00
5:36 PM,39.2,35.6,87,29.83,10.0,ESE,8.1,16.1,0.05,,Overcast,110,2012-12-31 02:36:00
5:56 PM,39.2,35.6,87,29.82,10.0,ESE,8.1,-,0.07,,Overcast,110,2012-12-31 02:56:00
6:16 PM,39.2,35.6,87,29.82,9.0,ESE,6.9,-,0.02,,Overcast,110,2012-12-31 03:16:00
6:36 PM,39.2,35.6,87,29.81,10.0,ESE,8.1,-,0.04,,Overcast,110,2012-12-31 03:36:00
6:56 PM,39.2,35.6,87,29.81,10.0,ESE,9.2,-,0.07,,Overcast,110,2012-12-31 03:56:00
7:16 PM,39.2,35.6,87,29.81,10.0,ESE,8.1,-,0.03,,Overcast,110,2012-12-31 04:16:00
7:36 PM,39.2,35.6,87,29.80,10.0,East,9.2,-,0.07,,Overcast,100,2012-12-31 04:36:00
7:56 PM,39.2,35.6,87,29.80,10.0,ESE,8.1,-,0.09,,Overcast,110,2012-12-31 04:56:00
8:16 PM,39.2,35.6,87,29.80,10.0,ESE,10.4,-,0.02,,Overcast,110,2012-12-31 05:16:00
8:36 PM,39.2,35.6,87,29.80,10.0,East,10.4,-,0.03,,Overcast,100,2012-12-31 05:36:00
8:56 PM,39.2,35.6,87,29.80,10.0,East,10.4,-,0.05,,Overcast,100,2012-12-31 05:56:00
9:16 PM,39.2,35.6,87,29.80,9.0,ESE,11.5,18.4,0.04,,Overcast,110,2012-12-31 06:16:00
9:36 PM,39.2,35.6,87,29.79,10.0,ESE,6.9,-,0.05,,Overcast,110,2012-12-31 06:36:00
9:56 PM,39.2,35.6,87,29.79,10.0,East,8.1,-,0.06,,Overcast,100,2012-12-31 06:56:00
10:16 PM,39.2,35.6,87,29.79,10.0,East,9.2,-,0.01,,Overcast,90,2012-12-31 07:16:00
10:36 PM,39.2,35.6,87,29.80,10.0,East,10.4,-,0.02,,Overcast,100,2012-12-31 07:36:00
10:56 PM,39.2,35.6,87,29.80,10.0,ESE,8.1,-,0.03,,Overcast,110,2012-12-31 07:56:00
11:16 PM,39.2,35.6,87,29.80,9.0,East,8.1,-,0.01,,Overcast,100,2012-12-31 08:16:00
11:36 PM,39.2,35.6,87,29.79,9.0,East,8.1,-,0.03,,Overcast,90,2012-12-31 08:36:00
11:56 PM,39.2,35.6,87,29.79,8.0,East,8.1,-,0.04,,Overcast,100,2012-12-31 08:56:00